Hourly Data Report for October 30, 2013

All times are specified in Local Standard Time (LST). Add 1 hour to adjust for Daylight Saving Time where and when it is observed.

TORONTO INTL A
ONTARIO

43°40'36.000" N
79°37'50.000" W
173.40 m
6158731
71624
YYZ

Download Data

Hourly Data (October 2013)
Hourly Data Report for October 30, 2013
Temp Definition
°C
Dew Point Temp Definition
°C
Rel Hum Definition
%
Wind Dir Definition
10's deg

Wind Spd Definition
km/h
Visibility Definition
km
Stn Press Definition
kPa
Hmdx Definition


Wind Chill Definition


Weather Definition


TIME
00:00 Legend Double Dagger 4.4 1.9 84 15 4 16.1 100.44     Rain
01:00 Legend Double Dagger 4.3 2.5 88 9 3 19.3 100.37     Cloudy
02:00 Legend Double Dagger 4.1 2.6 90 4 2 19.3 100.35     LegendNANA
03:00 Legend Double Dagger 4.3 2.8 90 1 5 24.1 100.34     LegendNANA
04:00 Legend Double Dagger 4.2 2.6 89 10 3 24.1 100.27     Cloudy
05:00 Legend Double Dagger 4.6 2.5 86 9 4 24.1 100.28     LegendNANA
06:00 Legend Double Dagger 4.9 2.9 87 15 5 24.1 100.28     LegendNANA
07:00 Legend Double Dagger 5.0 3.0 87 12 3 24.1 100.29     Mostly Cloudy
08:00 Legend Double Dagger 5.6 3.1 84 13 5 24.1 100.34     LegendNANA
09:00 Legend Double Dagger 5.7 2.7 81 12 6 19.3 100.38     LegendNANA
10:00 Legend Double Dagger 6.8 4.3 84 14 7 19.3 100.33     Mostly Cloudy
11:00 Legend Double Dagger 7.5 3.9 78 13 12 19.3 100.29     LegendNANA
12:00 Legend Double Dagger 8.9 3.8 70 10 8 24.1 100.27     LegendNANA
13:00 Legend Double Dagger 10.3 4.3 66 19 9 24.1 100.14     Mostly Cloudy
14:00 Legend Double Dagger 9.7 3.5 65 13 8 24.1 100.07     LegendNANA
15:00 Legend Double Dagger 9.5 2.8 63 14 9 24.1 100.03     LegendNANA
16:00 Legend Double Dagger 9.0 2.4 63 12 8 24.1 100.03     Mostly Cloudy
17:00 Legend Double Dagger 8.4 2.7 67 14 8 24.1 99.99     LegendNANA
18:00 Legend Double Dagger 7.5 3.2 74 15 7 24.1 100.01     LegendNANA
19:00 Legend Double Dagger 6.7 3.3 79 9 5 24.1 100.03     Mostly Cloudy
20:00 Legend Double Dagger 6.3 3.1 80 11 6 24.1 99.98     LegendNANA
21:00 Legend Double Dagger 5.6 3.0 83 9 5 24.1 99.97     LegendNANA
22:00 Legend Double Dagger 6.1 4.4 89 10 5 24.1 99.88     Mostly Cloudy
23:00 Legend Double Dagger 5.9 3.6 85 6 5 24.1 99.74     LegendNANA

Notes on Data Quality.

Legend

  • E = Estimated
  • M = Missing
  • NA = Not Available
  • ‡ = Partner data that is not subject to review by the National Climate Archives
Date modified: